Stations météo

réclame
Mon MeteoGroup
Gotska sandoen, Suède (2589): Température de l'air & dewpoint: 07.12.2017 04:00:00 - 13.12.2017 04:00:00 (CET)Gotska sandoen, Suède (2589): Vitesse du vent & gusts: 07.12.2017 04:00:00 - 13.12.2017 04:00:00 (CET)Gotska sandoen, Suède (2589): Direction du vent: 07.12.2017 04:00:00 - 13.12.2017 04:00:00 (CET)Gotska sandoen, Suède (2589): reduced air pressure: 07.12.2017 04:00:00 - 13.12.2017 04:00:00 (CET)Gotska sandoen, Suède (2589): visibility: 07.12.2017 04:00:00 - 13.12.2017 04:00:00 (CET)Gotska sandoen, Suède (2589): Quantités de précipitations: 07.12.2017 04:00:00 - 13.12.2017 04:00:00 (CET)
Date & Time tt [°C] td [°C] ff [km/h] ff [knt] fx [km/h] fx [knt] dd ppp [hPa] vv [km] rr [mm]
13.12.2017 04:00:00 0,2 -2,7 24 13 45 24 W 999,2 50 0,0
13.12.2017 03:00:00 0,2 -2,5 24 13 49 26 W 998,5 50 0,0
13.12.2017 02:00:00 0,1 -1,8 25 14 49 27 W 997,5 50 0,0
13.12.2017 01:00:00 -0,2 -1,5 23 12 45 24 W 996,5 50 0,0
13.12.2017 00:00:00 0,1 -1,0 27 15 47 26 WNW 995,4 40 0,0
12.12.2017 23:00:00 0,8 0,1 27 14 47 26 WNW 993,8 24 0,0
12.12.2017 22:00:00 1,2 0,9 26 14 48 26 NW 992,6 10 0,1
12.12.2017 21:00:00 1,4 1,3 29 15 49 26 NW 991,4 7 0,2
12.12.2017 20:00:00 1,8 1,7 29 16 49 26 NNW 989,9 8 0,2
12.12.2017 19:00:00 2,5 2,4 26 14 44 24 NNW 988,4 13 0,0
12.12.2017 18:00:00 2,7 2,6 24 13 44 24 NNW 987,3 5 0,0
12.12.2017 17:00:00 3,1 3,0 19 10 30 16 NW 986,0 31 0,0
12.12.2017 16:00:00 3,5 3,4 16 8 26 14 NW 984,9 37 0,0
12.12.2017 15:00:00 3,6 3,5 10 6 22 12 NW 983,9 17 0,0
12.12.2017 14:00:00 4,0 4,0 13 7 24 13 NW 983,2 12 0,0
12.12.2017 13:00:00 4,7 4,7 11 6 29 16 NW 983,1 3,4 0,1
12.12.2017 12:00:00 5,3 5,3 17 9 26 14 WSW 983,1 5 0,7
12.12.2017 11:00:00 5,5 5,5 11 6 18 10 SSW 983,4 2,0 0,8
12.12.2017 10:00:00 4,5 4,5 5 3 12 7 E 983,8 1,7 1,1
12.12.2017 09:00:00 3,8 3,8 9 5 14 8 E 984,7 1,9 0,5
12.12.2017 08:00:00 3,4 3,3 7 4 25 14 E 985,4 2,2 0,6
12.12.2017 07:00:00 3,5 3,4 14 8 30 16 SSE 986,7 7 1,1
12.12.2017 06:00:00 3,7 3,6 12 6 25 13 SE 987,5 3,3 1,4
12.12.2017 05:00:00 3,5 3,4 11 6 31 17 ESE 988,1 4,8 0,8
12.12.2017 04:00:00 3,8 3,7 16 8 33 18 SE 989,0 4,8 1,1
12.12.2017 03:00:00 4,2 4,1 15 8 35 19 SE 989,7 3,5 1,2
12.12.2017 02:00:00 3,7 3,6 14 8 33 18 SE 990,4 5 1,4
12.12.2017 01:00:00 3,6 3,5 15 8 35 19 ESE 990,9 3,1 1,3
12.12.2017 00:00:00 2,5 2,2 14 7 26 14 E 992,2 3,0 0,4
11.12.2017 23:00:00 2,2 1,6 11 6 22 12 ESE 993,2 6 0,3
11.12.2017 22:00:00 2,3 0,5 11 6 26 14 ESE 994,1 27 0,0
11.12.2017 21:00:00 2,0 0,2 12 7 28 15 ESE 993,8 13 0,0
11.12.2017 20:00:00 1,7 -0,4 11 6 27 15 ESE 994,4 21 0,0
11.12.2017 19:00:00 1,6 -1,3 11 6 28 15 E 994,6 38 0,0
11.12.2017 18:00:00 1,5 -2,1 13 7 23 13 ESE 994,9 45 0,0
11.12.2017 17:00:00 1,3 -2,6 11 6 22 12 E 994,6 43 0,0
11.12.2017 16:00:00 1,3 -2,8 9 5 23 12 ESE 995,0 38 0,0
11.12.2017 15:00:00 1,1 -3,0 12 6 31 17 E 994,7 49 0,0
11.12.2017 14:00:00 1,1 -2,5 8 5 37 20 ESE 994,8 41 0,0
11.12.2017 13:00:00 1,3 -2,3 15 8 30 16 E 993,5 43 0,0
11.12.2017 12:00:00 1,3 -1,6 13 7 25 14 ESE 994,0 35 0,0
11.12.2017 11:00:00 0,9 -2,3 12 7 31 17 E 994,0 44 0,0
11.12.2017 10:00:00 0,4 -2,1 16 9 36 19 ESE 993,9 27 0,0
11.12.2017 09:00:00 0,4 -1,5 12 6 27 14 ESE 993,6 35 0,0
11.12.2017 08:00:00 0,1 -1,5 11 6 26 14 SE 993,3 29 0,0
11.12.2017 07:00:00 0,0 -1,1 12 6 24 13 SE 992,8 33 0,0
11.12.2017 06:00:00 0,2 -0,2 10 5 20 11 ESE 992,2 31 0,1
11.12.2017 05:00:00 -0,1 -0,4 5 3 20 11 E 992,2 4,7 0,6
11.12.2017 04:00:00 0,4 -1,4 10 5 29 16 S 992,5 13 0,0
11.12.2017 03:00:00 0,4 -0,9 7 4 33 18 SE 992,1 50 0,0
11.12.2017 02:00:00 1,4 -1,8 14 8 39 21 SSE 991,9 50 0,0
11.12.2017 01:00:00 0,9 -2,7 10 5 18 10 S 991,9 50 0,0
11.12.2017 00:00:00 1,9 -1,7 10 6 28 15 SE 992,0 50 0,0
10.12.2017 23:00:00 2,5 -3,4 16 9 40 22 S 992,1 50 0,0
10.12.2017 22:00:00 2,6 -3,1 21 12 46 25 S 991,9 50 0,0
10.12.2017 21:00:00 2,6 -0,3 23 12 45 24 SSW 991,9 50 0,0
10.12.2017 20:00:00 2,6 0,1 22 12 45 24 SSW 991,6 50 0,0
10.12.2017 19:00:00 2,6 0,4 20 11 42 23 SSW 991,4 50 0,0
10.12.2017 18:00:00 2,5 -0,1 18 10 37 20 S 991,3 50 0,0
10.12.2017 17:00:00 2,5 -0,2 19 10 36 19 S 991,2 50 0,0
10.12.2017 16:00:00 2,4 -0,2 19 11 36 20 S 991,4 50 0,0
10.12.2017 15:00:00 2,6 -0,8 18 10 36 19 SSW 991,5 49 0,0
10.12.2017 14:00:00 2,5 -0,9 21 11 40 21 SSW 991,6 48 0,0
10.12.2017 13:00:00 2,5 -0,6 21 11 40 21 S 991,8 50 0,0
10.12.2017 12:00:00 2,5 -0,4 21 11 41 22 S 991,9 45 0,0
10.12.2017 11:00:00 2,9 0,0 20 11 45 24 S 992,1 37 0,0
10.12.2017 10:00:00 2,6 -0,2 21 11 43 23 SSW 992,4 45 0,0
10.12.2017 09:00:00 2,3 0,2 27 15 45 24 SSW 992,5 36 0,0
10.12.2017 08:00:00 2,5 0,9 21 12 49 27 SSW 992,3 28 0,0
10.12.2017 07:00:00 2,0 0,1 23 12 53 29 SSW 991,9 42 0,2
10.12.2017 06:00:00 3,2 1,1 19 10 41 22 SSW 991,8 44 0,0
10.12.2017 05:00:00 3,2 0,3 22 12 36 20 SSW 991,9 27 0,0
10.12.2017 04:00:00 3,2 0,8 24 13 41 22 SW 991,9 32 0,0
10.12.2017 03:00:00 3,4 1,8 23 13 37 20 SW 991,8 23 0,0
10.12.2017 02:00:00 3,6 2,3 23 12 39 21 SW 991,8 14 0,2
10.12.2017 01:00:00 2,7 2,1 26 14 56 30 S 992,0 19 0,9
10.12.2017 00:00:00 3,3 2,6 22 12 48 26 SSW 991,9 13 0,7
09.12.2017 23:00:00 3,2 2,3 20 11 42 23 S 991,7 6 0,6
09.12.2017 22:00:00 4,3 3,0 20 11 46 25 SSW 991,5 23 0,0
09.12.2017 21:00:00 3,9 2,7 21 12 44 24 SSW 991,2 5 0,7
09.12.2017 20:00:00 4,2 2,2 26 14 52 28 SW 991,0 34 0,0
09.12.2017 19:00:00 4,0 2,8 26 14 44 24 SSW 990,8 20 0,8
09.12.2017 18:00:00 4,5 2,4 23 12 47 25 SSW 990,6 48 0,0
09.12.2017 17:00:00 4,4 3,1 21 12 53 29 S 990,4 33 0,0
09.12.2017 16:00:00 4,2 2,9 29 16 59 32 SSW 990,3 31 0,0
09.12.2017 15:00:00 3,6 2,9 26 14 55 30 SSW 990,0 18 1,1
09.12.2017 14:00:00 3,2 2,9 25 14 57 31 SSW 989,9 2,9 1,7
09.12.2017 13:00:00 3,7 3,0 29 16 59 32 SSW 989,8 15 0,8
09.12.2017 12:00:00 3,7 3,0 30 16 60 33 SSW 989,9 14 0,7
09.12.2017 11:00:00 3,8 2,8 31 17 61 33 SSW 990,0 23 0,4
09.12.2017 10:00:00 3,8 2,8 34 18 68 37 SSW 990,0 8 0,1
09.12.2017 09:00:00 4,6 1,6 37 20 72 39 SSW 989,8 28 0,0
09.12.2017 08:00:00 4,3 0,8 37 20 74 40 SSW 989,6 26 0,0
09.12.2017 07:00:00 4,0 0,7 34 18 72 39 SSW 989,3 24 0,0
09.12.2017 06:00:00 4,1 0,6 32 18 67 36 SSW 989,2 24 0,0
09.12.2017 05:00:00 4,2 1,2 34 18 61 33 SSW 989,3 21 0,0
09.12.2017 04:00:00 4,8 1,5 36 20 71 38 SSW 989,1 23 0,0
09.12.2017 03:00:00 4,8 1,6 35 19 68 37 SSW 988,9 22 0,0
09.12.2017 02:00:00 4,8 2,0 36 19 68 37 SSW 988,7 22 0,0
09.12.2017 01:00:00 4,9 1,9 42 23 74 40 SW 988,6 23 0,0
09.12.2017 00:00:00 4,9 1,9 39 21 65 35 SW 988,6 25 0,0
08.12.2017 23:00:00 4,9 1,7 37 20 69 37 SSW 988,6 22 0,0
08.12.2017 22:00:00 5,1 1,8 35 19 69 37 SW 988,7 22 0,0
08.12.2017 21:00:00 5,2 1,9 36 20 69 37 SSW 988,9 22 0,0
08.12.2017 20:00:00 5,2 1,5 36 20 81 44 SW 988,6 20 0,0
08.12.2017 19:00:00 5,4 1,5 39 21 68 37 SW 988,4 24 0,0
08.12.2017 18:00:00 5,2 1,7 34 18 72 39 SW 988,1 24 0,0
08.12.2017 17:00:00 5,2 1,9 37 20 66 36 SW 988,1 27 0,0
08.12.2017 16:00:00 5,4 2,1 38 21 72 39 SW 987,9 23 0,0
08.12.2017 15:00:00 5,3 1,6 38 21 67 36 SW 987,6 24 0,0
08.12.2017 14:00:00 5,3 1,4 38 20 67 36 SW 987,5 23 0,0
08.12.2017 13:00:00 5,3 2,0 41 22 71 39 SW 987,7 20 0,0
08.12.2017 12:00:00 5,8 3,0 37 20 72 39 SW 987,6 22 0,0
08.12.2017 11:00:00 5,9 3,1 39 21 68 37 SW 987,3 22 0,0
08.12.2017 10:00:00 5,7 2,9 37 20 68 37 SW 987,4 19 0,0
08.12.2017 09:00:00 5,9 3,4 35 19 69 37 SW 987,4 18 0,0
08.12.2017 08:00:00 6,0 3,8 34 18 58 31 SW 987,4 16 0,0
08.12.2017 07:00:00 5,9 4,2 33 18 56 30 SW 987,4 17 0,0
08.12.2017 06:00:00 6,0 4,5 31 17 53 29 SSW 987,5 28 0,0
08.12.2017 05:00:00 5,7 4,7 30 16 62 34 SW 987,8 32 0,0
08.12.2017 04:00:00 5,9 5,0 32 18 55 30 SW 988,2 37 0,0
08.12.2017 03:00:00 5,8 5,4 32 17 54 29 SW 988,6 14 0,1
08.12.2017 02:00:00 5,8 5,7 32 17 63 34 SW 989,2 5 0,1
08.12.2017 01:00:00 5,9 5,5 31 17 59 32 SW 989,8 7 0,4
08.12.2017 00:00:00 6,0 5,1 34 18 64 35 SSW 990,5 12 0,0
07.12.2017 23:00:00 6,3 4,8 36 20 68 37 SW 991,2 18 0,0
07.12.2017 22:00:00 6,2 4,7 34 18 66 35 SW 991,9 14 0,0
07.12.2017 21:00:00 6,2 4,8 37 20 61 33 SW 992,6 11 0,0
07.12.2017 20:00:00 6,1 4,9 36 20 63 34 SW 993,1 11 0,0
07.12.2017 19:00:00 6,3 5,4 33 18 55 30 SW 994,0 11 0,0
07.12.2017 18:00:00 6,4 5,8 30 16 55 30 SW 994,7 7 0,0
07.12.2017 17:00:00 6,6 6,2 29 16 49 27 SW 995,4 10 0,0
07.12.2017 16:00:00 6,8 6,4 29 16 52 28 SW 996,3 22 0,1
07.12.2017 15:00:00 6,8 6,5 26 14 57 31 SSW 996,7 21 0,1
07.12.2017 14:00:00 6,8 6,5 27 15 47 26 SSW 997,3 14 0,0
07.12.2017 13:00:00 6,8 6,8 26 14 44 24 SSW 998,3 11 0,0
07.12.2017 12:00:00 6,8 6,8 27 14 47 25 SW 999,0 5 0,6
07.12.2017 11:00:00 6,8 6,8 29 16 50 27 SW 999,5 5 0,5
07.12.2017 10:00:00 6,8 6,8 28 15 50 27 SW 1000,1 6 0,3
07.12.2017 09:00:00 6,7 6,7 29 16 51 28 SW 1000,4 5 0,6
07.12.2017 08:00:00 6,7 6,7 24 13 37 20 SW 1000,8 7 0,5
07.12.2017 07:00:00 5,7 5,7 11 6 32 17 S 1001,4 2,8 0,6
07.12.2017 06:00:00 4,9 4,9 17 9 35 19 SSE 1002,0 2,7 0,4
07.12.2017 05:00:00 3,5 3,5 19 10 37 20 SE 1002,8 4,3 0,4
07.12.2017 04:00:00 2,6 2,5 14 7 26 14 ESE 1003,6 3,3 0,5

tt = Température de l'air
td = dewpoint
ff = Vitesse du vent
fx = gusts
dd = Direction du vent
ppp = reduced air pressure
vv = visibility
rr = Quantités de précipitations

stations d'obs. à proximité